Other Surface Observations
Issued by NWS Tucson, AZ

Home | Current Version | Previous Version | Text Only | Print | Product List | Glossary On
Versions: 1 2 3 4 5 6 7 8 9 10 11 12 13 14 15 16 17 18 19 20 21 22 23 24 25 26 27 28 29 30 31 32 33 34 35 36 37 38 39 40 41 42 43 44 45 46 47 48 49 50
601
SXUS55 KTWC 282015
OSOTWC

WEATHER ROUNDUP FOR SOUTHEAST ARIZONA
NATIONAL WEATHER SERVICE TUCSON AZ
115 PM MST THU JUL 28 2016

AZZ504>506-514-282115-
LOCATION       SKY/WX    TMP DP  RH WIND       PRES   REMARKS
TUCSON         SUNNY     99  58  25 VRB7      29.97F
DAVIS-MONTHAN  NOT AVBL
CHILDRENS PARK N/A      N/A N/A  30 SW2               PIMA CO DEQ
ALVERNON/22ND  N/A       97 N/A N/A W5                PIMA CO DEQ
CHERRY/GLENN   N/A      N/A N/A N/A N/A               PIMA CO DEQ
TANGERINE      N/A       97 N/A N/A W4                PIMA CO DEQ
CONTL RANCH    N/A      100  60  27 N2                PIMA CO DEQ
GRANT/1ST      N/A       96  60  30 N0                PIMA CO DEQ
CRAYCROFT/22ND N/A       97  59  29 N/A               PIMA CO DEQ
GOLFLINKS/KOLB N/A      N/A N/A N/A N/A               PIMA CO DEQ
AJO/12TH       N/A       97  61  31 S3                PIMA CO DEQ
SAGUARO EAST   N/A       35  10  34 NE2               PIMA CO DEQ
FAIRGROUNDS    N/A       96 N/A N/A N/A               PIMA CO DEQ
SAGUARO        N/A       98  63  32 SW4               *SABINO CYN
SAN CARLOS     N/A      103  55  21 SE4               *SAN CARLOS
GREEN VALLEY   N/A       95  59  30 NE3               PIMA CO DEQ
HORSE CAMP CYN N/A       93  60  34 N3                *ARAVAIPA CYN
RINCON MTNS    N/A       76  51  42 E3G10             *NR MANNING CAMP
$$

AZZ509>511-282115-
LOCATION       SKY/WX    TMP DP  RH WIND       PRES   REMARKS
SAFFORD        SUNNY     97  52  21 VRB3      29.99F
STRAY HORSE    N/A       83  46  27 SE4               *
TRAIL CABIN    N/A       89  50  26 NE5G10            *N OF GRANVILLE
BLACK HILLS    NOT AVBL
DRY LAKE       N/A       85  49  29 SW4G13            *NATANES MTNS
NOON CREEK     N/A       95  52  24 NE6G13            *PINALENO MTNS
COLUMBINE      N/A       67  52  59 SW3               *PINALENO MTNS
GUTHRIE        N/A       90  48  24 SE3G10            *SW OF GUTHRIE
$$

AZZ502-503-513-282115-
LOCATION       SKY/WX    TMP DP  RH WIND       PRES   REMARKS
NOGALES        SUNNY     94  61  33 CALM      30.05F
SELLS          N/A       97  62  32 NE6G11            *
SASABE         N/A       96  61  32 N6G10             *ALTAR VLY
HOPKINS        N/A       81  59  47 SW4G13            *SANTA RITA MTNS
CARR CYN       N/A       88  60  39 NE4               *W OF HEREFORD
$$

AZZ507-508-512-282115-
LOCATION       SKY/WX    TMP DP  RH WIND       PRES   REMARKS
SIERRA VISTA   SUNNY     92  55  28 VRB6      30.14
DOUGLAS        MOSUNNY   93  57  29 NE13G22   30.08F
EMPIRE MTNS    NOT AVBL
MULESHOE RANCH N/A       92  61  36 W4G11             *PRESERVE
HEADQUARTERS   N/A       88  56  34 E7G13             *CHIRICAHUA MTNS
$$

.............................NOTES.............................
THIS IS AN AUTOMATED COLLECTIVE WITH MINIMAL QUALITY CONTROL.
PIMA CO DEQ SITES HAVE NONSTANDARD WIND SENSOR HEIGHTS.
PIMA CO DEQ SITES DO NOT REPORT WIND GUSTS.
* INDICATES WIND SENSORS LOCATED AT 20 FEET INSTEAD OF 33 FEET.
..............................KEY..............................
SKY/WX - SKY CONDITION/WEATHER
TMP    - TEMPERATURE IN FAHRENHEIT
DP     - DEWPOINT IN FAHRENHEIT
RH     - RELATIVE HUMIDITY IN PERCENT
WIND   - DIRECTION AND SPEED IN MILES PER HOUR (MPH)
VRB    - VARIABLE WIND DIRECTION
PRES   - MEAN SEA LEVEL PRESSURE IN INCHES OF MERCURY
         F - FALLING PRESSURE   R - RISING PRESSURE
         S - STEADY PRESSURE
VSB    - VISIBILITY IN MILES
HX     - HEAT INDEX IN FAHRENHEIT
WCI    - WIND CHILL INDEX IN FAHRENHEIT
N/A    - NOT AVAILABLE
AFB    - AIR FORCE BASE
         DAVIS-MONTHAN IS DAVIS-MONTHAN AIR FORCE BASE
CYN    - CANYON
MTNS   - MOUNTAINS
NCA    - NATIONAL CONSERVATION AREA
NR     - NEAR
VLY    - VALLEY
CONTL  - CONTINENTAL
PIMA CO DEQ - PIMA COUNTY DEPT OF ENVIRONMENTAL QUALITY



USA.gov is the U.S. government's official web portal to all federal, state and local government web resources and services.